Погода в Моэне

Италия     46°22′33″N   11°39′30″E
темп.,
°C
ветер,
м/с
пор.,
м/с
влажн.,
%
обл.,
%
осадки,
мм/ч
давл.,
гПа
погр.,
м
13 апреля, вт
вт1323:00−7с3597100 4.6 1024403
02:00−8с3497100 9.4 1024370
05:00−9с3497100 3.7 1025347
08:00−9с3495100 4.4 1026305
11:00−7с3490100 0.3 1025684
14:00−4с2385100 0.6 10231004
17:00−4с2384100 0.3 1022893
20:00−9ссв229687 0.3 102721
14 апреля, ср
ср1423:00−13св219625 0.0 103216
02:00−15св219715 0.0 103315
05:00−16всв21965 0.0 103314
08:00−10св12915 0.0 102959
11:00−4с117811 0.0 1025789
14:00−2ссз117786 0.1 10221167
17:00−2сз127498 0.6 1020997
20:00−7с0097100 1.3 102510
15 апреля, чт
чт1523:00−7с119892 1.0 102560
02:00−11в1196100 1.4 102814
05:00−11в1194100 0.1 102816
08:00−8св1294100 0.3 1025179
11:00−5с1291100 0.8 1024680
14:00−4с1287100 1.9 1022768
17:00−3ссз1184100 2.3 1020578
20:00−6ссз119887 5.3 102271
16 апреля, пт
пт1623:00−10вюв219749 1.0 102613
02:00−12юв219646 1.1 102812
05:00−14вюв119615 0.0 102812
08:00−8всв11915 0.0 102442
11:00−2ссз118275 0.0 1020889
14:00−1с0185100 0.3 10181002
17:00−1в018398 1.3 1017721
20:00−5юв119787 2.3 102114
17 апреля, сб
сб1723:00−8вюв119990 0.1 102413
02:00−10вюв119961 0.1 102512
05:00−11в119844 0.0 102413
08:00−5св11946 0.0 102057
11:00−1с118535 0.0 1017810
14:00+1св117875 0.2 10151317
17:00+1всв117869 0.8 1014688
20:00−4св1197100 1.6 101611